Theta_e
302 302 302 303 303 304 304 302 299 299 300 299 301 304 305 307 310 311 311 311 310 311 314 312 309 310 311 310 309 309 309 310 309 308 309 311 312 311 310 309 308 309 309 308 309 309 308 309 310 310 309 308 309 308 307 307 308 309 310 310 310 309 310 310 309 308 308 308 307 307 308 307 306 307 309 311 312 313 313 316 318 316 315 315 317 319 320
302 302 302 302 303 303 304 303 300 298 300 300 302 304 305 307 309 310 311 311 311 311 313 312 310 309 308 308 308 308 309 309 308 308 308 310 313 314 313 309 308 308 308 308 309 309 309 309 309 310 310 309 309 308 307 307 308 310 312 312 310 310 311 310 310 311 312 312 311 309 309 308 307 308 310 311 311 311 313 315 315 316 315 314 316 319 317
303 302 301 302 303 303 304 304 301 299 300 302 303 304 305 307 310 310 310 311 311 311 310 309 310 309 307 307 308 309 310 308 307 308 308 308 310 312 313 309 306 307 307 308 309 309 309 309 310 310 310 310 309 308 308 308 308 308 311 311 310 312 312 310 311 313 314 314 314 314 313 308 306 309 310 310 311 312 314 317 316 316 316 315 316 317 316
304 302 301 301 302 302 303 304 302 300 300 302 304 303 304 308 310 308 308 307 307 308 307 306 307 307 306 307 309 310 309 307 306 307 307 308 308 310 311 309 307 308 309 310 311 310 309 310 310 311 310 310 310 310 310 309 307 309 313 311 309 312 312 311 311 312 313 313 313 313 313 310 308 309 310 310 311 312 314 318 319 318 318 317 317 319 319
305 303 301 301 302 302 302 303 303 302 301 302 303 302 303 307 308 305 305 305 305 305 304 303 305 305 305 308 309 308 307 306 306 307 308 308 308 309 310 310 310 311 311 312 313 311 310 310 311 311 311 311 311 312 311 309 309 313 314 311 311 313 312 312 312 312 312 312 311 312 313 313 311 310 313 314 314 314 315 317 320 321 318 315 317 320 321
305 304 301 301 301 302 302 303 304 303 301 301 302 301 302 305 305 303 303 304 306 305 304 303 304 304 306 308 308 307 307 307 306 307 307 307 308 309 310 311 312 311 311 313 313 313 312 311 312 312 312 313 313 313 312 310 310 314 314 312 313 314 314 314 314 313 312 313 314 314 314 316 314 313 314 315 314 315 315 315 317 318 316 315 317 320 321
305 304 302 301 301 301 302 302 303 303 302 301 301 301 301 302 303 302 302 303 304 303 304 304 304 305 307 308 308 306 306 307 306 306 307 307 308 308 308 310 310 310 311 313 314 314 313 312 313 312 313 314 314 314 315 314 312 313 312 312 312 313 314 316 315 313 314 315 317 317 316 316 317 316 313 312 313 315 314 314 315 315 316 317 318 322 323
304 303 302 301 300 301 302 302 303 303 302 300 300 300 301 302 302 302 302 302 302 303 303 303 303 305 306 307 307 306 306 307 305 305 306 307 307 307 307 308 308 308 311 313 315 315 313 313 313 312 313 314 313 314 318 317 314 314 313 313 311 311 315 317 315 315 316 316 318 319 317 317 319 320 317 311 312 314 313 314 315 315 317 318 319 323 322
304 303 301 300 300 301 301 302 302 303 303 300 299 300 301 302 302 302 302 302 303 303 303 302 303 306 305 305 306 305 305 306 305 305 306 306 306 306 307 308 308 308 310 312 313 311 310 311 311 311 312 314 314 314 316 314 313 316 317 316 313 313 316 317 316 317 317 316 317 317 317 317 319 323 324 317 313 314 314 315 315 315 316 317 320 321 318
303 303 301 300 301 301 301 301 302 302 302 300 299 300 301 302 301 301 302 302 302 302 302 302 304 305 304 304 304 305 305 305 304 306 306 305 305 305 306 307 307 307 308 309 308 306 305 306 308 309 311 313 314 314 314 313 312 314 317 317 317 317 318 318 318 318 318 317 317 316 317 320 321 325 327 322 317 317 316 317 317 316 316 319 321 320 319
303 303 301 300 301 302 302 301 301 302 302 300 299 300 301 302 302 302 302 302 302 301 301 302 303 303 303 303 304 304 304 304 304 305 306 304 305 305 305 306 306 306 306 306 305 305 306 308 310 311 313 314 315 314 313 313 311 312 314 317 318 318 318 317 317 318 319 319 319 318 318 321 325 326 322 319 319 319 318 317 318 317 318 319 320 320 326
302 303 302 300 301 302 302 301 301 301 302 300 299 300 301 302 302 302 302 302 302 301 301 302 302 302 302 303 303 304 304 304 304 305 305 304 305 305 305 305 306 306 305 305 306 307 311 314 315 316 315 314 314 313 312 312 311 311 311 314 318 319 318 318 316 317 320 320 320 320 320 321 324 322 317 317 320 319 319 321 320 317 317 318 320 322 326
302 303 303 301 301 301 302 301 301 301 301 300 299 300 301 302 302 302 302 302 301 301 301 301 301 302 302 303 303 303 304 304 304 304 304 304 304 305 305 305 305 305 305 306 307 310 315 318 318 319 317 314 315 316 314 313 313 313 312 313 317 318 318 319 318 317 320 320 319 320 319 319 320 320 318 321 323 322 325 329 327 322 320 321 321 321 321
302 303 303 302 301 301 302 301 301 301 301 301 300 299 300 301 302 302 302 302 302 302 302 302 302 302 302 302 303 303 303 303 304 303 303 304 304 304 305 305 304 304 305 307 309 312 317 318 317 318 317 316 318 318 316 314 314 316 316 315 316 316 317 319 318 317 318 320 320 320 319 319 320 320 321 322 322 322 324 328 330 325 323 324 324 321 321
302 302 303 302 302 301 302 301 301 301 301 301 301 299 299 301 301 301 302 302 302 302 302 302 302 302 302 303 302 302 303 303 303 303 303 304 304 304 305 305 304 305 306 308 311 315 318 317 315 316 317 317 317 317 316 315 315 315 316 316 317 317 317 319 318 316 318 320 320 320 321 322 320 319 319 319 319 320 321 324 328 325 323 325 326 326 328
302 302 302 303 302 302 302 301 301 301 301 301 301 300 299 300 301 301 302 302 302 303 302 302 302 302 302 303 302 302 303 303 303 303 303 304 304 304 305 304 304 304 306 308 310 313 316 315 314 316 317 317 316 316 316 316 315 315 314 315 316 316 318 320 320 319 318 320 320 320 321 322 320 319 319 318 319 320 319 321 325 324 322 324 325 326 329
302 302 302 303 302 302 302 302 302 301 300 301 301 300 299 299 301 301 301 301 302 302 302 301 302 302 302 302 302 302 303 303 303 303 304 304 303 304 305 305 304 304 305 308 309 311 313 313 312 314 316 316 316 316 315 314 315 316 315 316 316 316 317 320 322 320 318 318 319 320 321 321 320 319 318 319 320 319 317 320 324 323 322 324 324 326 328
302 302 302 303 302 302 302 302 302 302 301 300 301 300 299 299 300 300 300 301 301 301 301 301 302 302 302 302 302 302 303 303 303 302 303 303 303 304 304 304 304 304 305 308 309 309 311 311 310 312 314 315 315 315 313 313 316 317 316 317 316 316 316 318 318 319 318 318 318 319 320 319 319 319 318 319 320 319 319 323 324 321 322 324 323 324 326
303 303 303 302 302 302 302 302 302 302 301 300 300 301 300 299 299 300 300 300 301 301 301 301 301 302 302 302 302 303 302 302 302 302 303 303 303 304 304 304 304 303 304 308 309 309 310 310 308 310 312 312 312 312 312 314 315 315 316 317 317 315 316 317 317 317 317 317 317 319 320 318 317 318 318 319 320 321 321 322 321 320 322 323 322 323 325
304 303 303 303 302 302 302 302 302 302 301 300 300 301 301 300 299 300 300 300 301 301 301 301 301 301 302 302 302 302 302 301 302 302 303 303 303 303 304 305 305 304 305 308 307 307 308 308 306 307 310 310 309 309 311 312 312 313 316 318 317 316 316 317 317 317 317 317 318 320 321 318 316 318 319 319 320 321 320 320 321 321 321 321 321 324 326
304 303 303 303 302 302 302 302 302 302 301 301 300 300 301 300 299 300 300 300 300 300 300 301 301 301 301 301 301 301 301 301 302 302 302 303 303 303 304 305 304 304 305 307 307 307 307 306 305 305 307 307 307 308 309 309 310 314 317 316 317 317 317 317 317 316 317 319 320 321 321 318 316 317 320 320 320 320 320 320 321 321 321 321 322 324 326
304 304 303 303 302 302 302 302 302 302 301 301 300 300 301 301 300 300 300 300 300 300 300 300 300 301 301 301 302 302 302 302 302 302 302 302 303 303 304 304 304 304 304 306 307 307 306 306 306 305 305 306 307 307 307 308 311 316 316 315 316 318 318 318 317 316 317 319 319 319 318 317 316 317 319 319 319 319 319 320 320 321 322 321 322 323 325
305 304 304 303 303 302 302 302 302 302 301 301 300 300 300 300 300 300 299 300 299 299 300 300 300 301 301 302 302 302 301 302 302 302 302 302 302 303 303 303 304 304 304 304 306 306 306 306 307 306 306 306 307 307 307 308 312 315 314 313 315 317 317 316 317 318 318 318 318 318 317 316 317 318 318 319 319 318 319 320 320 321 322 321 322 323 325
305 305 304 304 303 303 303 302 302 302 301 300 300 300 300 300 300 299 299 299 299 299 300 300 300 301 301 301 301 301 301 301 302 302 301 301 301 302 302 303 303 303 304 304 304 304 305 306 306 305 306 306 306 307 308 309 311 312 310 309 312 314 316 317 319 320 319 318 319 319 318 317 318 318 319 319 318 318 319 320 320 321 321 322 322 323 325
306 305 304 304 304 303 303 302 302 302 301 301 300 300 300 300 300 299 299 299 298 299 300 300 301 301 301 301 301 301 300 300 300 300 300 300 300 301 301 302 302 302 303 303 303 304 305 306 306 306 306 306 306 307 308 308 308 309 308 308 309 311 315 318 320 320 319 317 317 317 317 317 318 319 319 318 318 319 320 320 320 320 321 321 322 323 325
306 306 305 304 304 304 303 303 302 302 301 301 300 300 300 300 299 299 299 299 298 299 300 300 301 302 301 301 301 301 300 299 299 299 300 300 300 300 301 301 301 302 302 303 303 304 304 305 306 306 306 306 306 307 307 306 306 307 307 307 308 309 314 318 319 319 319 318 316 316 318 319 318 318 319 318 319 320 320 320 319 320 321 321 321 323 325
307 306 305 304 304 304 304 303 302 302 301 300 300 300 300 300 299 299 299 299 299 300 300 300 301 301 300 301 301 300 299 298 299 300 301 301 301 301 301 302 302 303 302 303 303 304 304 305 305 306 307 306 305 306 306 306 306 307 307 307 308 310 314 317 317 317 317 317 316 317 319 320 319 318 318 319 319 319 319 319 320 320 321 320 320 322 324
307 307 306 304 304 304 304 303 302 301 301 300 300 300 300 300 299 300 300 300 299 300 300 300 300 301 301 301 300 299 298 299 300 301 302 302 302 302 302 302 303 303 303 303 304 304 305 305 305 305 305 305 305 307 307 306 307 308 308 307 307 308 310 312 314 315 316 316 314 315 317 319 319 318 319 320 320 319 319 319 319 320 321 320 320 322 324
308 307 306 305 304 304 304 304 303 301 300 300 300 300 300 300 301 301 301 301 300 300 300 300 300 301 301 300 299 298 300 300 301 301 302 302 303 303 303 303 303 303 303 303 304 304 304 305 305 304 305 305 307 308 308 308 308 308 307 306 307 307 308 309 311 314 315 314 313 313 315 318 319 318 319 320 320 320 320 319 319 320 321 320 320 321 322
308 308 307 305 304 304 304 304 303 301 300 300 300 300 300 300 302 302 302 301 301 300 300 300 300 300 300 299 298 298 300 301 302 302 302 303 303 304 304 304 304 303 303 303 304 303 304 304 304 305 305 304 306 309 309 309 308 308 306 306 307 308 307 307 309 311 312 311 310 311 313 316 318 318 319 320 320 320 320 320 320 320 321 320 320 321 322
308 308 307 305 304 303 304 304 303 301 300 300 300 299 299 300 302 302 302 302 301 300 299 299 299 299 298 298 298 298 300 301 301 302 302 303 304 304 304 304 304 304 303 304 304 304 304 304 304 305 305 304 306 309 310 309 309 308 306 306 307 307 307 308 308 309 310 309 309 310 312 315 318 319 320 321 320 320 320 320 320 320 320 320 320 321 323
307 307 306 305 303 303 303 303 302 301 300 300 300 300 300 300 301 301 301 301 300 299 298 298 298 298 298 298 298 299 299 300 301 301 302 303 303 304 304 303 304 304 304 304 304 304 305 305 304 305 305 304 307 310 310 309 309 308 307 306 307 307 307 308 308 308 309 310 310 312 316 317 317 318 319 320 320 320 320 319 320 320 320 320 320 322 324
306 306 305 304 303 302 303 303 301 301 300 300 300 301 301 301 300 300 299 299 299 298 298 298 298 298 298 298 299 299 299 300 301 301 302 303 303 303 303 303 304 304 305 305 305 305 305 305 305 305 305 305 308 311 311 309 308 307 306 306 307 308 308 309 309 310 311 311 312 315 318 318 317 317 318 319 320 320 319 318 320 320 319 320 321 322 324
306 305 304 304 303 302 302 302 301 300 300 300 301 301 301 300 300 300 300 299 299 299 299 298 298 298 298 299 300 300 300 300 301 301 302 303 303 303 303 304 303 304 304 305 305 305 306 306 306 306 307 307 307 309 310 308 307 306 307 308 309 310 311 311 311 312 313 313 314 316 317 317 316 317 317 318 320 320 319 319 320 320 319 320 321 322 323
305 304 304 303 302 302 302 301 300 300 300 300 301 301 300 300 300 300 300 300 299 299 299 299 298 298 298 299 300 301 300 300 301 301 302 302 303 303 303 303 303 305 305 305 305 306 306 306 305 306 308 308 307 308 309 308 308 308 309 310 310 311 311 312 312 314 314 313 314 315 316 316 317 317 317 318 319 320 320 320 320 320 320 321 322 322 322
304 303 303 302 301 302 301 300 300 300 301 301 301 301 300 300 300 300 300 300 300 299 299 299 299 299 299 299 300 300 299 300 301 301 302 302 303 303 303 303 305 305 304 304 306 306 306 305 306 308 308 307 307 308 308 308 309 309 309 309 309 310 311 312 313 313 313 313 314 315 315 315 316 317 317 318 319 320 320 320 320 320 321 322 323 322 322
303 302 301 301 301 301 300 300 300 301 301 301 301 301 301 300 300 300 300 300 299 299 299 299 299 299 299 299 300 300 300 302 302 301 302 303 303 303 302 304 305 304 304 306 308 306 304 304 305 308 309 308 307 307 308 308 308 308 308 308 308 309 311 312 312 313 313 313 313 314 315 315 316 317 318 319 319 319 320 320 319 320 321 322 322 322 322
302 301 301 301 300 299 299 300 301 301 301 301 300 300 301 300 299 299 299 299 299 299 299 299 299 299 298 299 300 300 301 302 302 302 303 303 303 303 303 305 305 304 304 307 306 303 305 308 308 308 308 307 307 308 308 307 307 307 306 307 308 309 310 311 312 312 313 313 313 314 314 315 316 317 319 319 319 319 319 319 319 320 321 320 320 321 322
302 301 300 300 299 299 300 301 301 300 300 300 300 300 300 299 299 299 299 299 299 300 299 299 299 299 299 299 299 301 301 301 301 303 304 304 303 304 304 304 303 303 304 306 304 303 306 310 310 308 308 307 307 308 307 306 306 306 305 306 308 309 310 311 311 312 312 312 312 312 314 315 316 317 318 319 319 319 319 319 319 319 319 318 318 320 321
301 300 300 299 300 300 300 300 300 299 300 300 300 300 299 299 299 300 300 299 299 299 300 300 300 300 300 299 300 301 301 301 302 304 305 304 303 303 303 302 302 302 303 305 304 303 304 306 307 307 307 307 307 307 306 305 305 305 304 305 308 309 309 310 311 311 311 311 312 313 315 317 317 318 318 318 318 318 319 318 318 317 316 316 317 317 318
301 300 300 300 300 300 300 300 299 299 299 299 300 300 299 299 300 300 300 300 300 300 300 300 300 300 300 300 300 301 301 302 302 303 303 303 302 301 302 303 302 301 303 305 305 303 304 305 306 307 306 306 306 306 305 304 304 304 304 304 306 308 308 309 310 310 310 311 312 313 314 317 317 318 318 318 318 318 318 317 317 316 315 316 315 315 314
302 301 301 300 300 300 300 300 299 299 299 299 299 299 299 299 300 300 300 300 301 301 301 301 301 301 301 301 301 301 301 301 301 301 302 302 302 301 302 303 302 302 304 305 304 304 304 305 305 306 305 305 305 305 304 303 304 304 303 303 305 307 308 308 309 309 310 311 312 313 314 316 316 317 317 316 317 317 317 316 315 315 315 315 315 314 314
301 300 300 300 300 299 299 300 299 299 299 299 299 299 299 299 300 301 301 301 300 300 301 301 301 302 302 301 300 301 301 300 300 300 301 302 302 301 302 303 303 303 305 304 303 303 304 305 306 305 305 305 304 303 302 302 303 303 302 302 304 306 307 307 308 308 309 311 313 314 314 315 316 315 314 315 316 316 316 315 315 315 314 315 314 314 313
300 299 299 300 299 299 299 300 299 299 299 299 299 300 301 301 302 302 302 302 301 301 301 301 300 301 301 300 300 300 300 300 300 300 301 302 302 302 303 303 303 303 303 303 303 304 304 305 305 305 304 304 303 302 301 301 302 301 301 302 304 306 307 307 307 308 309 311 313 314 314 315 315 315 314 315 315 316 315 315 315 314 315 314 314 314 313
299 299 299 299 298 298 299 300 299 299 299 300 300 301 302 304 304 304 303 303 302 302 301 300 300 300 300 300 300 300 300 300 300 300 300 301 302 302 303 304 304 303 302 303 304 304 304 304 304 304 303 303 302 301 301 301 301 301 301 302 304 305 306 306 307 308 310 311 312 314 315 315 315 314 314 314 315 315 315 315 315 314 314 315 314 313 312
299 299 299 298 298 298 299 300 300 300 300 301 301 301 301 302 302 302 302 302 301 301 300 300 300 300 299 299 300 300 299 299 300 301 300 301 302 303 302 303 303 303 303 304 305 304 304 304 304 303 302 302 301 301 301 301 300 301 302 303 303 305 305 306 306 308 309 310 311 313 314 315 315 314 314 314 314 313 314 314 314 314 314 314 313 312 311
299 298 298 299 299 298 299 299 300 301 301 300 300 300 300 300 300 301 301 301 300 300 300 300 299 300 299 299 299 301 301 299 300 301 300 300 302 303 302 302 302 303 303 303 303 304 304 304 304 302 301 301 300 300 300 300 300 301 303 303 304 304 305 305 306 307 309 310 311 312 314 315 315 314 314 314 313 313 312 313 313 313 313 312 311 310 310
299 298 298 299 300 299 299 299 300 300 300 300 300 300 300 300 300 300 301 300 300 300 300 299 299 300 300 299 299 301 301 299 299 301 301 301 302 304 304 303 303 303 303 303 303 304 303 303 302 301 300 300 300 300 299 299 300 301 302 303 303 304 305 305 305 306 308 310 311 312 313 314 314 314 314 314 313 311 310 311 312 312 311 310 310 310 310
299 298 298 299 299 299 299 299 299 299 299 300 300 300 300 300 300 300 300 300 300 300 300 299 299 300 301 300 299 300 301 300 300 301 302 303 304 304 304 303 303 303 302 302 303 303 302 301 300 300 300 299 299 299 299 300 300 301 302 303 303 303 304 304 305 307 308 310 311 312 312 313 313 313 313 313 312 310 309 309 310 310 310 310 310 310 310
298 298 298 298 299 299 299 299 300 300 300 299 300 300 300 300 300 300 300 300 299 299 299 299 299 299 300 299 300 301 302 301 300 301 302 303 304 304 304 303 303 303 302 302 302 301 300 299 299 299 298 298 298 299 299 299 299 300 301 302 302 302 303 304 305 307 309 309 310 312 312 312 312 311 310 310 310 310 309 309 309 309 309 309 310 310 311
298 298 298 298 299 300 300 299 300 300 300 299 299 300 299 299 300 300 300 300 300 300 300 299 299 300 300 301 301 301 300 300 300 301 302 303 303 303 303 303 303 302 301 301 300 300 299 298 298 297 297 297 298 299 299 299 298 299 300 301 301 302 303 304 306 308 309 309 310 311 312 311 311 309 308 308 309 309 309 309 309 309 309 310 310 310 310
297 297 297 298 298 299 299 299 299 299 299 298 299 299 299 299 300 300 300 299 300 300 299 299 299 300 300 300 300 299 299 300 300 300 300 300 300 301 302 302 302 301 300 299 299 298 298 297 296 296 296 297 298 298 298 298 298 299 299 300 301 302 303 305 307 309 309 309 309 310 310 309 309 308 308 308 309 309 309 309 309 310 310 310 310 310 310
Wind_Speed
18 19 19 19 20 22 24 25 25 26 27 26 26 23 19 14 6 4 6 6 8 8 3 3 3 1 8 13 13 15 10 5 8 10 8 5 1 1 1 3 4 4 4 2 5 5 4 4 4 4 5 6 12 11 8 11 9 7 3 2 3 3 1 3 4 5 8 12 11 10 10 9 6 4 4 5 5 5 5 4 1 1 4 4 4 6 7
19 19 18 19 19 20 22 23 22 22 23 25 25 21 18 14 8 6 5 6 8 4 1 3 4 4 9 11 13 14 7 5 10 8 8 9 1 3 3 3 4 3 3 2 3 3 3 4 6 6 3 7 18 12 12 14 6 5 7 6 5 3 2 2 3 3 3 5 4 4 6 5 4 4 5 6 7 6 3 2 2 0 5 6 4 6 7
19 19 19 19 18 19 20 22 20 18 18 20 21 18 15 11 5 5 6 6 7 4 1 3 4 4 7 8 10 9 6 9 12 9 11 11 2 3 4 2 3 3 2 3 4 5 5 4 5 5 4 7 12 9 6 6 6 9 13 15 11 3 2 2 2 1 1 1 1 2 4 4 3 5 7 8 9 7 4 2 2 2 4 6 5 6 10
20 20 20 18 18 19 19 20 20 16 14 17 18 15 12 7 2 5 8 6 5 6 6 6 4 3 5 6 6 6 7 9 11 11 9 11 9 4 3 1 1 1 1 3 4 5 7 7 5 6 6 5 3 6 13 11 8 9 14 21 13 1 2 4 5 4 3 4 6 5 4 3 4 7 8 7 8 8 5 3 3 4 4 6 6 6 12
20 21 20 19 19 18 18 19 20 17 14 15 16 13 10 5 1 3 6 6 5 8 13 12 8 7 7 3 3 7 9 7 9 10 7 13 18 6 4 0 2 2 3 4 4 4 4 6 8 9 8 7 6 8 10 5 9 9 13 17 9 1 2 5 6 7 7 7 9 9 6 4 5 6 7 6 7 7 5 4 4 4 3 7 8 5 9
20 20 20 19 18 18 18 18 18 19 16 15 15 11 7 4 2 3 4 3 2 5 12 15 14 13 10 3 3 8 10 9 10 9 9 15 16 5 1 4 5 5 6 3 4 5 4 5 6 7 7 7 8 8 8 7 3 5 7 9 5 1 2 4 3 5 8 8 7 7 5 5 4 5 7 8 8 8 6 5 6 6 5 8 10 7 9
20 20 20 19 17 17 18 17 18 18 16 14 14 10 8 6 3 3 5 5 6 9 15 17 13 10 8 4 4 8 9 9 9 7 8 11 9 8 8 9 12 13 7 3 3 3 4 7 6 5 8 8 6 4 2 4 4 3 3 6 4 1 2 3 2 4 5 5 5 6 6 4 3 4 7 9 10 9 9 9 10 10 10 11 11 9 9
19 19 19 17 15 15 17 17 18 18 16 13 12 12 11 8 5 8 10 8 11 14 15 13 8 6 6 5 5 8 9 9 11 10 8 8 8 11 14 15 16 15 7 4 5 5 4 7 10 9 8 7 4 2 2 2 3 4 2 4 3 2 2 3 2 3 3 3 3 5 7 8 7 5 4 7 10 10 10 10 8 8 10 11 9 8 9
18 18 17 16 15 14 16 17 17 19 18 14 13 13 11 8 5 7 9 6 7 10 13 10 5 3 4 5 6 8 8 11 13 11 8 7 8 11 15 17 15 12 8 4 6 10 10 12 18 20 15 12 10 7 5 5 4 2 3 3 2 3 2 3 1 3 3 4 5 5 6 7 7 5 3 5 8 8 7 7 8 9 10 9 6 6 7
17 17 15 15 15 14 15 16 16 17 17 15 13 11 10 10 7 6 6 4 3 6 9 8 4 3 4 7 8 8 10 15 15 8 5 12 18 18 18 16 13 10 10 9 14 25 28 26 30 32 27 22 20 17 16 13 10 5 2 2 3 4 2 1 1 2 5 4 6 7 3 1 2 4 4 6 7 7 6 7 9 10 8 5 4 5 5
15 16 15 14 14 14 14 14 14 15 16 15 13 9 10 11 9 9 8 3 2 5 5 4 3 4 8 11 12 10 11 16 16 8 5 12 22 26 24 19 12 7 12 24 34 39 36 33 33 32 30 26 23 22 20 16 13 10 5 2 2 3 3 1 1 1 4 6 8 6 3 2 3 4 3 4 7 8 8 8 9 8 6 5 6 6 4
14 15 15 14 13 13 14 13 12 12 13 12 9 6 7 8 8 9 7 2 4 6 4 4 6 8 12 14 12 11 12 15 18 15 9 12 20 24 23 18 11 11 26 41 44 38 29 22 19 16 17 19 17 15 13 10 11 12 9 6 4 4 3 1 1 1 3 4 6 5 2 3 6 4 4 5 4 4 5 6 7 6 6 8 8 7 7
13 14 14 14 13 13 13 13 11 10 10 9 6 4 4 5 8 9 6 3 4 3 3 9 14 14 15 17 14 14 18 20 20 19 15 13 16 20 22 18 15 23 38 43 37 25 14 8 6 6 7 9 7 4 5 6 7 8 9 5 4 5 3 1 0 2 2 3 4 2 4 7 8 6 5 7 6 5 6 5 3 3 5 6 7 8 10
13 13 14 14 13 13 13 12 11 9 9 9 7 3 2 3 6 8 7 3 3 6 7 8 10 11 15 19 18 15 17 18 15 14 15 14 13 17 22 24 26 33 37 32 23 13 4 2 4 5 5 6 5 5 7 7 3 6 10 7 2 4 2 1 1 1 0 2 2 2 4 7 7 4 3 3 4 3 4 4 4 3 6 6 5 2 4
13 13 13 14 13 12 12 12 12 10 8 8 8 6 2 3 3 5 7 5 5 9 7 4 5 12 13 17 18 12 10 12 10 11 13 12 13 18 23 28 31 34 33 23 11 5 3 3 4 4 4 6 5 4 6 7 4 4 7 7 4 2 3 2 1 1 2 2 2 3 4 3 3 1 3 1 8 8 3 3 5 4 7 8 7 4 5
13 14 13 13 13 12 12 12 12 11 9 9 10 7 2 3 3 4 8 8 4 5 6 7 15 20 14 14 17 12 7 6 7 10 8 7 15 23 28 32 31 31 32 21 7 3 4 3 4 3 3 4 4 5 5 6 7 8 8 11 11 7 1 2 2 2 1 1 2 2 1 3 6 4 2 4 14 12 1 3 5 4 8 12 8 5 5
13 13 13 13 13 12 12 12 12 12 10 9 10 8 3 2 4 5 8 9 7 11 16 17 19 18 11 9 12 13 11 9 9 8 4 8 19 23 28 35 31 27 29 16 4 4 5 3 5 4 2 4 5 5 5 5 7 10 12 14 12 9 5 4 3 2 1 0 1 2 3 4 4 5 7 13 19 10 2 3 5 4 12 16 11 9 9
13 13 13 13 12 12 12 12 12 13 12 10 10 8 3 1 5 7 9 11 10 12 14 12 13 16 15 13 13 15 15 13 10 7 6 10 13 14 24 29 20 19 24 13 2 5 5 4 6 4 2 4 4 3 5 6 5 7 8 7 5 4 4 3 3 2 2 2 2 2 4 3 2 8 16 21 17 5 4 4 6 9 16 20 15 13 14
12 12 12 12 12 12 11 12 13 13 12 11 11 9 5 2 4 7 10 13 12 13 18 20 22 24 21 18 18 19 18 17 12 7 4 5 9 18 26 19 7 11 16 7 3 5 4 4 5 4 3 4 4 3 5 5 5 6 5 4 3 3 3 3 2 2 2 2 2 3 3 1 6 14 19 14 6 0 2 9 16 18 20 22 20 17 15
12 11 11 11 12 12 11 12 13 12 12 11 12 11 7 3 3 5 7 12 17 23 29 26 20 18 18 18 20 22 22 22 16 7 2 7 16 22 18 7 5 11 9 3 4 4 2 3 4 3 2 4 4 4 4 4 6 6 3 3 3 1 2 4 2 2 2 1 2 4 2 4 12 17 12 5 3 2 7 14 21 24 24 22 22 20 16
12 11 11 11 12 11 11 12 12 12 12 11 12 13 10 4 3 5 7 13 18 22 23 20 18 22 26 26 26 25 23 23 21 17 15 17 19 14 5 5 10 9 3 2 4 2 2 3 2 2 3 3 3 4 4 6 7 4 1 1 3 1 0 2 1 1 2 2 2 1 3 9 17 14 5 4 9 11 11 13 16 21 24 22 21 22 19
12 11 11 11 11 11 11 12 12 12 12 10 11 13 12 9 7 8 10 15 19 22 26 29 30 28 22 16 16 16 16 19 21 21 22 23 20 15 14 16 15 10 7 4 2 0 2 2 1 2 3 3 3 4 5 4 5 4 1 1 3 3 2 1 2 2 1 3 7 9 11 17 23 19 14 17 20 16 14 15 15 18 22 22 22 24 21
12 11 10 10 11 11 11 12 12 12 11 11 11 12 14 13 10 10 13 17 21 27 29 26 22 17 11 8 9 13 14 16 17 17 19 21 19 18 19 18 16 16 13 6 2 2 2 2 2 3 2 3 3 5 5 3 3 5 4 2 5 6 2 3 1 3 4 7 12 14 15 20 24 23 20 21 21 19 19 19 18 19 21 21 22 23 21
13 11 11 11 10 10 11 11 12 12 11 10 11 11 13 13 12 12 14 15 20 25 22 16 15 13 10 12 18 21 21 19 17 17 17 17 15 13 12 14 15 15 15 12 11 8 3 2 2 2 2 3 3 2 4 4 2 4 6 5 6 6 1 3 2 3 3 5 8 9 11 17 23 22 19 16 16 20 22 21 20 21 21 19 20 21 20
15 12 11 11 10 10 11 11 11 12 10 10 10 11 12 13 12 12 13 13 17 17 13 14 19 15 13 22 28 25 20 17 16 16 16 16 18 16 15 17 18 17 21 23 21 13 5 2 2 3 3 4 4 2 3 4 3 4 5 5 5 6 4 2 3 3 2 6 12 14 15 18 17 13 15 17 18 22 25 23 21 22 20 18 18 17 16
16 14 12 11 9 9 11 11 12 11 10 10 10 11 13 13 12 13 14 13 14 14 10 13 19 20 24 31 27 19 18 19 19 18 16 15 18 20 20 20 19 20 24 26 21 15 8 3 2 2 3 4 4 3 3 5 6 5 5 8 11 12 9 4 2 4 5 7 10 12 12 13 10 8 13 18 20 23 25 24 22 22 20 19 18 14 13
17 15 13 12 10 9 10 11 11 10 9 10 10 10 13 13 12 13 12 9 9 9 6 10 19 29 35 33 23 20 24 25 19 15 12 11 13 16 17 18 19 22 23 20 16 13 7 4 3 4 4 6 6 5 6 7 6 5 6 9 11 10 7 3 2 5 6 5 10 11 6 6 13 15 15 16 18 21 24 24 23 23 23 23 21 17 14
18 16 15 13 11 10 10 11 11 10 9 10 10 11 13 13 11 10 9 8 10 10 11 18 29 35 33 29 25 25 24 20 15 13 13 12 12 13 15 17 20 23 21 16 10 6 4 4 5 5 5 5 5 5 5 6 5 4 5 8 9 8 8 7 6 8 10 13 21 20 9 8 17 22 17 14 17 19 21 23 22 22 25 25 21 16 12
20 18 16 14 12 11 11 11 10 10 9 9 11 11 11 10 8 6 6 6 8 12 17 23 25 21 19 24 29 25 17 15 16 16 16 15 13 13 15 17 20 22 22 18 11 7 6 8 9 9 9 7 3 2 4 4 4 6 9 14 18 19 20 19 15 13 16 24 32 29 19 17 22 23 18 14 14 16 19 20 19 21 24 22 16 14 11
23 21 18 16 14 12 11 11 10 10 9 8 9 10 9 5 3 4 5 3 3 8 13 12 11 13 21 28 30 24 17 16 17 16 16 16 15 14 14 14 18 21 22 20 16 11 9 8 9 13 19 15 7 1 2 3 4 7 12 18 22 24 28 30 27 22 23 31 37 35 29 27 27 22 17 13 11 14 17 17 17 19 20 17 13 12 10
25 23 21 18 15 13 11 10 10 11 10 9 9 7 4 2 3 4 5 5 6 12 15 11 13 19 23 24 24 22 20 19 18 17 17 16 16 15 15 15 17 16 17 20 18 13 10 8 7 10 17 15 8 3 3 4 3 7 15 22 25 25 29 34 35 34 34 38 40 36 30 29 24 17 13 11 10 13 15 13 14 16 15 12 12 11 11
24 24 22 19 16 14 11 10 11 12 12 11 12 11 8 6 7 8 9 11 13 15 12 8 9 10 10 16 23 22 19 18 17 17 18 17 16 17 16 15 16 16 13 13 11 8 9 13 13 13 15 14 8 3 3 3 4 11 21 29 31 31 32 35 37 39 38 39 35 25 18 19 16 11 10 11 10 12 14 13 12 12 9 8 10 9 9
20 21 21 19 16 13 11 10 12 13 12 12 15 13 11 10 9 6 7 9 10 10 7 4 4 3 6 15 21 17 15 17 17 17 18 17 17 19 18 16 15 13 9 6 6 5 7 11 11 10 12 13 9 2 1 5 11 20 28 31 31 31 33 34 33 33 34 34 29 18 13 14 14 12 12 11 7 8 12 12 11 9 7 8 8 8 9
17 18 19 19 16 12 11 11 12 12 11 13 14 11 8 7 6 6 5 7 7 6 5 4 3 3 6 11 12 10 12 15 14 14 14 16 19 19 16 13 12 8 4 4 5 5 5 6 5 4 5 8 7 2 3 8 14 19 22 23 24 27 31 31 30 31 32 31 25 19 17 16 14 14 14 11 6 7 9 9 10 11 9 6 5 6 8
15 17 18 18 15 12 12 12 12 11 12 13 11 6 2 4 7 6 7 9 7 5 4 4 4 4 5 5 6 7 11 12 11 12 13 15 19 18 11 7 7 5 4 7 6 4 3 4 4 3 2 3 3 1 3 7 13 18 20 22 25 27 26 26 29 35 36 30 21 20 21 19 16 15 14 11 8 7 7 8 10 10 5 1 3 5 6
15 16 17 16 13 12 13 13 12 12 11 9 7 3 4 5 4 4 7 10 10 8 5 2 3 3 2 2 5 9 12 11 11 14 15 13 13 14 10 5 3 4 7 7 4 3 4 5 4 3 2 0 1 3 7 11 16 20 23 26 28 25 22 24 29 35 37 32 23 20 22 22 21 17 12 10 8 7 6 7 7 4 1 4 4 3 5
16 17 16 15 13 12 13 13 12 10 7 6 5 5 5 5 6 6 8 11 13 13 10 5 4 6 6 4 5 7 7 7 8 10 11 9 8 9 8 3 2 4 7 4 2 5 10 9 4 1 0 0 3 8 14 17 19 21 24 28 29 27 25 28 33 37 38 35 30 27 26 23 22 17 11 9 8 7 6 5 4 3 3 4 5 3 2
17 18 17 15 14 12 10 9 7 5 2 3 5 5 5 5 5 5 7 9 10 12 11 8 8 10 9 6 7 8 6 5 6 5 5 6 6 4 3 3 3 4 4 2 4 8 9 6 2 2 1 0 6 13 18 19 21 23 25 27 29 28 27 29 33 35 34 31 30 32 33 28 24 18 12 9 9 7 5 3 3 4 4 5 8 7 4
20 20 18 16 15 12 8 6 7 6 4 4 5 3 3 3 3 3 5 7 6 7 9 9 10 13 12 8 10 14 10 5 4 2 3 5 5 2 1 3 4 3 2 2 5 7 5 2 1 1 1 2 6 14 20 21 22 25 29 30 30 30 28 28 31 33 31 29 29 31 31 28 24 17 11 9 8 6 5 5 4 5 7 9 11 10 7
22 20 18 17 15 12 9 8 8 5 4 5 5 3 3 4 4 3 4 4 3 5 8 8 10 14 15 13 10 10 8 6 6 5 4 5 4 3 1 2 2 2 1 2 5 5 2 2 3 1 1 4 10 18 24 26 26 30 34 33 31 31 30 29 31 34 35 34 32 28 24 22 19 15 10 9 7 6 7 7 7 9 10 10 9 7 6
24 21 19 18 15 13 12 10 7 4 4 4 3 2 2 4 5 5 4 2 2 5 8 7 6 8 12 16 15 11 9 9 10 8 5 4 4 2 1 1 2 2 1 3 5 4 1 1 2 0 2 10 17 22 27 31 32 34 37 36 32 31 32 31 32 35 37 35 31 27 23 19 16 11 8 7 7 7 9 11 11 10 7 6 6 6 5
22 19 17 15 13 12 11 9 7 4 3 2 2 2 2 3 3 3 4 4 3 3 6 8 7 5 6 9 11 10 7 7 7 6 4 2 3 2 1 1 2 1 3 5 5 3 1 2 2 1 7 16 21 23 28 32 33 34 37 37 33 31 32 33 33 36 37 34 29 25 21 18 16 12 9 7 7 8 11 13 13 10 8 9 9 8 6
18 17 14 12 12 11 8 6 6 5 1 1 2 2 2 2 2 2 3 5 4 3 5 7 5 4 3 2 2 5 7 7 6 4 2 1 3 2 1 1 1 2 4 5 3 1 2 1 1 3 11 18 20 23 29 32 32 34 38 38 32 30 31 32 32 35 36 33 26 22 18 16 16 14 10 8 9 9 11 12 12 12 13 12 10 8 5
19 17 13 9 9 8 5 4 6 6 2 2 3 3 2 3 3 2 2 4 4 3 3 2 1 3 3 4 5 5 5 4 4 3 2 3 2 1 0 1 2 3 4 4 1 2 2 1 2 7 13 17 20 26 30 32 33 36 38 36 31 29 31 32 33 34 36 33 27 20 15 13 15 13 8 8 10 10 10 12 12 13 12 9 6 4 3
20 15 10 5 5 6 5 3 3 5 3 2 3 3 3 3 4 3 4 5 4 3 1 2 4 4 4 5 5 3 3 3 3 2 2 2 1 0 2 3 2 2 2 2 2 2 2 1 4 10 15 18 23 29 32 32 34 35 34 33 32 31 32 34 34 34 34 33 26 20 15 13 14 11 8 10 10 8 9 14 14 12 10 7 4 3 3
18 14 9 4 2 5 5 2 2 3 3 4 5 6 6 6 6 5 4 5 5 3 1 1 3 3 3 4 2 3 5 4 2 2 2 1 0 2 3 2 1 1 1 2 2 2 2 3 6 11 17 22 27 30 32 34 35 34 32 32 32 33 33 33 33 33 33 29 24 19 15 12 12 11 10 11 9 5 8 12 12 9 7 6 5 4 3
14 10 7 3 2 4 4 3 4 5 4 5 8 10 10 10 13 14 11 8 7 5 3 1 2 3 3 3 2 3 4 2 1 3 3 1 1 2 1 0 1 1 2 2 3 2 2 5 9 15 22 28 30 32 34 35 35 32 30 30 32 33 32 31 32 34 31 26 21 18 12 8 10 12 13 13 9 4 5 8 8 7 7 7 6 6 6
12 9 6 2 1 3 4 4 6 8 9 9 10 11 12 13 16 17 13 11 9 6 4 3 2 2 3 3 1 2 3 2 2 3 3 1 1 1 1 1 2 1 1 2 3 2 3 8 15 22 28 31 32 33 34 34 33 31 29 29 32 33 31 31 34 34 28 22 20 16 9 7 9 10 12 14 11 8 6 8 8 6 6 7 8 7 8
12 9 6 3 2 3 5 4 3 6 11 13 13 14 15 17 19 17 11 9 9 6 3 3 3 2 1 1 1 1 2 2 1 1 2 1 1 1 1 1 3 3 2 1 2 4 9 16 22 28 31 32 32 32 31 30 30 30 28 28 30 31 31 34 35 30 22 18 16 11 5 4 6 8 11 12 11 9 8 8 7 7 7 8 8 7 8
9 6 5 3 2 2 3 3 2 3 6 8 10 12 15 15 13 11 8 8 8 5 3 3 3 2 0 1 1 0 1 1 1 1 2 1 1 1 1 2 3 3 2 3 6 11 18 23 27 29 30 31 31 30 29 28 29 29 28 28 29 29 32 35 32 23 17 15 12 8 5 4 7 10 12 12 12 10 8 6 6 6 7 7 8 8 9
6 5 5 7 7 5 3 2 2 2 4 7 10 14 15 9 7 11 10 8 6 4 3 2 2 2 2 1 1 1 2 2 1 1 1 2 1 1 1 2 2 3 6 11 16 20 24 26 27 28 29 31 30 27 27 28 30 31 31 30 29 31 34 33 25 17 14 12 8 5 5 5 8 11 13 13 13 11 10 9 7 7 8 9 9 10 10
6 4 4 8 11 11 8 6 6 7 9 12 13 15 14 6 7 10 8 6 5 4 3 3 3 2 1 1 1 1 2 2 1 1 2 2 1 1 2 4 6 8 13 18 23 25 27 28 28 27 27 28 27 26 27 29 31 32 31 30 31 33 33 27 17 13 14 11 4 4 8 10 12 13 14 13 12 12 12 12 10 9 10 10 9 9 10
Wind_Direction
344 346 350 356 360 3 3 0 356 351 348 353 359 2 2 360 355 347 332 289 299 326 342 334 341 277 306 313 309 306 299 301 335 341 333 317 164 138 280 198 196 234 228 270 322 318 299 268 240 269 272 267 297 289 196 143 107 111 135 96 91 88 188 242 271 275 270 272 265 257 261 260 246 219 183 168 184 191 185 185 164 332 306 310 315 279 258
345 345 348 353 358 2 4 3 359 351 346 348 353 357 355 347 343 2 349 286 297 332 22 315 322 311 312 317 315 313 318 346 340 339 329 319 238 159 278 224 197 237 237 245 276 277 289 267 252 269 253 278 306 295 183 159 125 153 181 172 160 159 159 219 283 313 310 303 291 252 239 229 228 226 197 184 188 182 166 132 110 142 267 258 268 276 266
347 346 345 349 355 358 2 5 2 353 342 342 349 353 353 349 347 1 348 300 291 296 276 301 299 304 322 318 311 318 343 346 338 328 315 315 304 200 274 247 184 225 252 260 259 235 225 241 266 273 254 281 315 322 247 207 163 180 183 160 152 169 155 174 272 342 57 331 260 219 214 214 229 227 210 196 189 183 169 118 128 214 263 260 249 267 286
348 347 344 345 350 353 358 2 2 359 345 341 349 353 358 6 358 338 337 321 295 293 313 334 315 298 335 318 303 340 344 329 341 347 330 328 332 291 233 331 324 242 255 267 270 249 213 217 261 282 281 285 309 312 291 264 193 177 166 152 146 149 189 194 231 219 187 209 227 238 242 229 223 220 214 197 185 188 178 140 173 219 263 279 256 265 294
347 347 344 342 345 349 353 357 3 4 354 345 349 354 360 13 43 6 348 329 324 331 338 350 342 317 327 315 304 352 348 330 346 357 342 329 329 311 173 99 319 265 301 296 277 282 242 230 258 271 272 279 288 304 308 261 186 165 154 158 160 89 208 209 212 219 238 244 244 258 265 243 223 215 208 197 191 196 190 179 206 221 260 279 268 269 293
343 345 343 341 343 344 346 355 3 6 3 353 351 2 14 13 17 43 16 330 326 343 327 324 321 315 317 323 348 356 358 350 341 337 328 325 328 334 190 307 301 279 279 270 269 296 304 272 263 268 278 300 316 329 11 51 110 153 166 188 191 105 237 221 195 232 259 260 255 262 254 228 221 217 208 204 207 209 204 209 226 226 235 260 264 272 284
339 342 340 340 343 340 342 352 360 9 14 354 348 13 32 17 351 344 355 330 294 293 301 303 303 310 320 341 4 357 352 343 328 318 321 322 329 349 333 312 319 317 292 222 247 293 309 298 287 280 290 304 314 307 357 62 92 126 189 215 198 141 277 261 289 294 289 291 300 316 318 302 276 245 222 209 208 210 210 220 231 234 242 253 258 265 271
335 339 340 340 344 340 340 348 355 8 17 1 6 36 39 29 6 328 331 324 298 304 320 321 309 318 346 357 350 344 338 331 326 317 310 311 327 342 331 316 318 320 303 226 231 243 250 272 274 273 282 293 301 291 249 215 176 153 182 228 193 161 253 274 338 341 310 273 272 310 313 292 279 284 256 212 208 211 213 221 232 243 254 258 256 259 267
330 336 339 341 345 343 340 344 350 2 12 14 29 47 48 43 29 337 328 318 307 328 340 337 319 326 7 1 335 337 332 322 322 312 297 318 333 327 321 317 316 316 308 255 248 288 293 266 259 262 259 258 260 255 250 266 275 206 187 222 182 154 247 287 26 348 286 218 219 257 262 244 247 281 286 221 210 211 213 216 219 227 243 253 255 262 269
326 332 338 340 344 345 341 341 347 357 8 18 27 41 42 30 27 18 356 303 286 348 338 329 339 342 345 340 328 323 317 319 325 322 314 333 334 326 320 318 318 320 318 307 305 309 303 286 275 271 265 259 255 252 254 260 270 265 204 210 198 167 198 292 54 329 303 295 296 297 310 67 266 256 222 204 208 217 224 230 229 222 218 217 225 240 246
322 329 336 338 341 343 340 338 344 353 5 17 25 37 36 21 10 10 4 312 284 4 346 329 355 332 324 329 326 318 317 323 328 330 321 325 328 330 330 328 325 317 313 317 318 314 306 296 288 281 273 268 259 254 256 255 257 257 234 208 212 153 149 227 165 238 298 318 327 337 46 75 252 235 208 213 220 218 222 237 245 231 212 213 221 217 207
318 326 333 336 337 339 339 336 337 349 4 16 27 39 37 28 10 1 4 323 309 343 349 313 306 305 309 315 318 316 316 318 319 316 307 307 319 328 333 334 330 315 317 321 322 320 316 310 301 286 279 277 267 259 263 268 274 274 259 234 206 142 138 197 183 207 280 331 3 19 34 240 255 287 332 324 291 247 245 253 254 257 261 256 235 197 182
315 323 330 332 331 332 335 335 330 336 354 7 22 34 15 11 8 357 351 312 288 300 325 307 301 308 318 321 321 317 314 316 316 314 310 305 314 328 334 334 325 320 323 325 324 322 320 318 328 326 306 302 299 301 316 308 304 319 319 287 186 152 145 153 232 270 296 9 33 13 281 276 292 323 353 355 355 360 355 332 279 308 330 288 243 197 188
310 320 326 327 326 325 329 332 326 320 334 351 2 6 318 326 360 351 336 318 268 282 293 291 301 322 331 326 322 318 317 319 316 315 317 314 315 324 330 333 333 334 336 334 328 331 344 347 349 341 323 336 356 1 344 330 347 20 0 349 114 137 145 174 252 244 321 347 295 269 305 316 326 357 46 8 329 324 350 331 271 311 6 353 325 270 229
307 315 321 322 321 320 322 327 323 312 314 326 340 353 308 265 311 333 323 314 297 298 278 219 316 334 328 319 321 323 322 321 321 322 318 314 321 326 331 337 341 348 353 350 338 344 14 9 5 353 344 5 1 326 329 332 336 1 356 355 24 105 175 192 295 331 83 18 308 322 350 327 281 298 86 330 284 275 253 243 266 317 5 4 359 344 313
303 309 316 317 316 314 317 321 318 310 302 304 324 350 8 240 262 313 317 311 302 288 255 261 311 319 312 312 320 323 318 317 330 329 317 321 331 331 337 342 347 358 3 359 346 356 9 20 16 343 331 2 344 310 324 331 319 323 343 359 5 3 5 100 49 23 68 43 323 304 280 238 255 285 56 318 298 299 276 214 262 320 351 348 345 312 299
301 307 311 313 313 311 312 317 316 308 297 289 308 337 22 211 266 307 315 305 280 270 277 292 312 316 312 317 321 319 314 315 329 328 311 320 323 326 338 341 344 3 9 2 349 5 10 14 359 342 316 341 333 316 324 328 321 328 341 353 0 359 357 24 29 357 317 224 255 240 236 248 282 325 341 320 307 307 129 198 255 326 337 332 331 315 311
301 304 307 308 309 309 309 312 311 306 294 280 291 316 354 200 272 289 296 298 290 277 281 298 313 306 299 299 299 300 305 316 327 320 298 300 305 325 340 335 334 1 7 6 17 359 1 12 358 342 302 322 338 334 324 324 322 324 330 336 341 341 343 352 357 338 296 265 265 267 265 259 338 345 332 324 316 312 144 214 278 317 320 316 320 314 311
300 302 304 305 305 305 305 306 306 302 291 277 278 294 316 320 285 282 284 291 289 276 279 289 294 292 292 293 290 290 299 306 305 301 302 296 307 330 335 326 325 359 355 2 39 351 347 12 357 334 307 327 348 343 320 311 312 316 318 318 323 334 329 324 330 331 312 270 269 287 267 260 5 346 334 335 344 99 235 290 306 313 308 307 314 311 307
299 299 300 302 301 300 300 301 302 298 290 279 273 282 301 323 294 282 287 295 295 290 290 292 291 288 291 290 287 290 298 300 294 284 262 287 309 328 336 335 356 353 343 355 22 353 341 356 345 339 337 326 326 327 316 304 301 299 299 309 299 281 315 319 318 311 303 275 305 322 289 307 337 340 344 21 59 272 287 304 313 314 308 305 312 313 317
297 295 296 298 296 296 298 298 298 296 290 276 268 278 290 295 286 285 287 292 293 291 292 295 295 294 295 293 291 290 285 281 282 279 273 282 300 320 328 303 322 335 341 7 1 347 345 346 329 323 327 311 306 318 322 321 308 284 202 304 287 218 257 320 298 310 333 333 324 307 232 282 311 320 310 295 303 301 308 314 311 310 309 309 315 319 326
292 292 293 294 293 295 298 296 295 293 288 275 266 273 281 288 296 300 296 292 286 280 285 293 296 297 300 303 310 309 293 286 292 287 275 276 285 284 276 282 291 289 285 312 349 302 325 333 283 296 309 294 296 306 307 312 305 293 301 335 289 253 174 182 248 261 273 256 258 262 268 286 297 298 289 296 302 307 320 321 313 313 315 317 321 323 329
286 288 289 290 292 295 296 295 294 291 286 276 266 266 278 291 304 310 309 305 298 295 297 300 298 301 311 321 330 329 314 308 313 304 284 277 277 274 271 272 277 282 279 262 222 254 242 185 230 282 278 269 295 311 303 274 268 300 318 300 283 278 205 133 196 265 258 254 257 264 277 286 291 296 302 306 306 311 322 325 325 327 327 327 328 327 329
277 280 283 286 290 296 298 296 292 289 283 273 263 265 278 289 302 313 315 313 310 311 312 306 297 304 321 320 322 327 323 312 304 298 289 282 276 271 268 271 279 282 273 266 275 280 248 195 257 258 239 272 281 289 290 272 267 326 327 307 293 295 258 148 241 285 315 306 281 273 285 293 296 303 312 311 307 313 322 328 334 336 335 336 335 330 330
269 272 277 281 287 297 301 298 292 288 281 266 258 261 273 283 296 310 311 307 305 308 308 297 297 308 322 318 319 324 326 317 304 297 295 288 280 277 280 288 289 281 277 281 282 270 240 218 255 242 253 269 252 228 260 268 284 325 321 299 299 314 316 288 274 274 275 285 283 287 302 306 304 312 322 317 315 323 329 335 343 344 341 342 338 329 333
261 265 270 275 281 296 304 301 294 286 272 260 255 260 274 288 299 302 301 298 293 288 278 281 292 306 315 317 321 327 325 323 320 312 300 286 277 275 278 284 285 281 281 280 270 253 240 220 201 224 247 239 230 240 262 268 280 290 278 274 286 294 294 289 304 300 283 279 287 302 324 325 314 326 335 325 320 326 330 334 344 351 350 347 342 338 344
254 258 263 266 274 291 303 302 293 280 263 255 257 266 282 295 303 298 292 285 277 276 267 270 289 304 311 314 322 333 330 330 331 321 305 287 279 278 277 277 278 280 278 271 259 249 241 223 218 225 233 241 250 258 257 261 272 271 266 280 292 296 295 309 343 313 298 298 307 314 331 313 296 303 321 328 327 327 327 329 341 355 355 345 343 352 4
248 252 255 258 265 281 298 302 290 273 257 255 264 278 290 299 302 291 266 241 244 257 265 278 292 302 309 314 324 335 337 338 336 326 315 307 297 292 291 286 282 278 269 257 247 232 201 214 236 230 231 246 256 260 261 267 278 271 262 280 290 287 286 295 302 294 287 292 303 307 297 266 289 301 310 323 329 324 319 323 333 346 350 347 343 343 346
243 246 248 252 257 268 288 300 287 265 253 258 273 288 298 300 300 291 260 232 243 267 276 284 292 296 298 310 326 339 347 348 343 336 331 327 317 304 296 288 279 274 264 252 243 230 220 229 235 240 250 247 230 269 291 282 282 276 268 277 286 288 289 290 286 282 285 291 300 305 296 281 294 305 309 318 326 319 316 322 327 335 346 349 338 321 316
241 243 243 245 248 258 277 290 279 259 249 255 276 295 308 300 269 280 280 232 237 303 303 294 292 292 292 303 320 337 351 356 356 352 346 343 338 328 317 302 289 278 264 251 240 233 236 238 236 249 256 247 222 232 295 259 268 277 274 280 288 292 296 299 296 291 289 292 297 301 295 287 293 302 304 310 316 311 315 323 326 333 345 346 332 334 359
239 241 241 240 241 250 268 280 268 248 240 245 259 271 284 253 211 247 272 252 275 309 312 296 288 295 297 302 317 335 346 352 357 356 350 348 345 340 336 326 313 294 264 247 238 231 235 237 236 252 251 235 209 201 248 246 276 285 281 286 291 294 298 302 303 302 300 298 299 300 294 287 288 295 302 308 309 307 311 314 319 333 346 341 334 357 24
236 237 238 237 236 243 261 271 257 240 236 247 255 254 259 276 274 268 267 268 281 296 300 295 296 298 301 313 324 336 345 347 350 350 347 348 348 340 334 331 328 318 291 256 233 221 234 235 237 254 252 228 204 211 241 228 249 268 278 288 295 299 302 305 306 308 310 309 305 296 284 285 290 298 311 315 315 313 309 301 310 336 346 326 329 2 26
234 234 234 233 231 239 255 258 246 239 241 253 262 269 284 293 284 263 251 259 273 282 276 278 296 277 288 312 324 342 355 347 343 344 343 346 347 338 331 334 337 331 309 261 216 216 242 230 225 251 251 221 198 197 258 236 247 262 275 287 298 307 313 316 314 315 321 322 312 287 266 286 302 309 315 317 318 318 309 297 303 327 325 303 323 10 30
231 229 230 230 228 235 247 242 234 236 246 256 266 286 304 281 236 201 211 241 258 268 259 250 259 276 300 306 312 340 353 339 331 336 337 338 340 335 327 330 336 334 317 288 267 256 259 242 224 247 240 204 192 210 253 257 273 287 297 310 326 334 334 332 330 330 334 332 316 287 277 293 300 300 309 319 326 323 315 300 300 313 317 310 337 25 33
222 223 225 224 224 232 240 234 228 232 245 260 277 298 293 210 202 199 226 245 247 244 242 236 238 270 310 305 295 328 343 332 322 324 322 326 336 336 323 315 324 323 313 308 292 258 261 267 244 240 241 178 173 230 289 307 323 334 339 341 347 348 340 334 334 336 339 339 323 295 289 293 290 290 304 317 323 324 321 310 303 306 318 37 70 63 53
212 217 216 215 221 230 230 223 222 231 245 266 288 276 196 200 225 242 247 248 243 237 240 243 229 236 266 283 280 306 324 324 323 327 324 323 332 333 321 307 304 311 316 314 286 254 293 293 257 244 294 235 182 305 327 339 344 347 344 339 339 340 336 335 337 338 339 342 337 316 301 290 281 285 299 309 309 312 313 311 309 300 169 140 138 114 82
206 209 206 208 215 219 220 221 226 236 253 265 260 247 240 246 260 262 248 241 241 242 240 237 242 241 235 238 268 290 310 317 321 328 326 316 311 313 311 298 275 316 327 322 272 293 306 300 275 228 262 46 359 343 347 354 354 350 343 336 334 335 339 342 345 344 343 343 342 336 325 303 280 276 287 294 292 290 292 298 294 245 181 137 135 146 114
199 202 202 204 203 202 210 223 218 205 211 217 220 245 271 256 242 246 234 224 231 238 230 226 252 251 229 220 257 266 273 306 319 319 315 314 312 308 309 308 307 325 335 294 282 310 317 307 279 136 151 355 5 1 356 354 353 350 343 335 334 339 343 345 346 347 345 339 332 331 328 312 288 277 279 280 277 273 269 268 250 227 195 125 120 129 112
197 197 196 198 198 193 188 177 165 160 170 191 200 235 264 230 209 221 210 202 217 231 218 218 244 241 214 210 262 272 267 280 304 289 283 308 315 311 314 325 323 331 338 291 306 330 339 307 293 22 2 316 351 356 351 348 348 349 347 343 342 345 346 345 344 344 341 332 325 325 325 313 297 288 279 266 261 251 228 209 187 169 150 133 132 140 128
196 194 192 195 196 192 178 161 152 154 168 180 194 225 234 215 210 199 181 181 210 217 208 220 248 247 230 224 251 277 273 247 244 260 279 281 274 270 293 323 323 328 294 270 303 329 343 284 296 359 17 316 328 341 347 348 348 347 346 346 345 347 347 345 342 342 342 336 330 329 327 317 304 297 283 262 243 217 198 184 162 150 144 134 124 123 119
195 194 196 198 195 189 183 174 163 163 177 185 205 228 213 215 225 213 189 191 245 224 217 219 234 247 241 231 231 247 268 265 260 266 268 257 262 286 288 274 311 322 233 261 308 333 341 266 300 19 320 322 331 341 347 347 344 342 343 343 343 344 347 345 340 340 344 341 333 329 327 317 305 299 292 270 239 206 183 168 157 154 151 134 118 116 124
199 196 196 194 185 178 180 178 172 177 194 196 207 228 215 216 229 219 202 215 238 228 216 214 216 245 262 239 225 235 267 292 284 268 246 252 302 313 255 267 319 288 242 283 319 339 294 295 316 282 310 327 339 348 347 344 341 337 337 338 338 340 344 343 338 338 342 341 334 330 328 312 290 281 283 274 245 207 177 161 152 145 134 127 134 144 144
192 186 180 174 167 165 171 180 178 177 186 187 194 230 254 227 219 220 217 225 239 234 213 214 233 277 311 328 287 284 297 307 298 273 239 268 308 316 313 296 261 241 279 305 320 289 267 278 201 279 310 328 342 347 345 342 338 333 332 334 336 336 339 340 337 335 338 339 334 330 326 305 281 276 278 266 239 210 182 163 152 147 145 143 145 147 140
177 171 163 158 158 158 159 171 174 175 194 218 191 195 225 223 215 217 206 206 214 212 203 207 358 9 2 351 337 319 306 315 323 313 277 267 283 346 25 247 242 270 303 313 274 240 262 221 227 297 319 331 339 341 341 340 336 333 331 332 333 333 336 339 337 334 335 337 332 325 318 298 280 274 259 234 234 227 197 173 160 155 156 156 149 139 132
169 160 148 136 151 165 166 168 178 185 204 211 190 192 210 209 201 198 205 212 214 197 150 48 32 25 359 347 343 317 298 325 340 319 280 266 293 291 247 240 246 294 309 285 257 277 299 271 291 314 328 334 334 335 336 335 333 332 330 330 331 331 333 337 337 335 334 333 328 320 312 294 277 264 226 210 229 233 188 170 167 165 162 154 131 117 120
166 159 149 134 168 185 185 186 183 188 198 206 205 206 208 209 220 232 225 210 207 205 206 22 26 14 345 343 335 286 290 307 305 276 280 296 252 253 252 256 299 311 275 263 272 274 258 270 296 318 330 332 331 331 330 329 330 331 329 328 329 330 332 334 334 332 331 331 325 316 305 283 260 241 206 191 204 207 167 160 161 156 144 128 107 98 78
164 158 154 147 177 194 200 213 214 215 227 229 226 232 240 251 266 273 260 223 198 189 182 132 68 32 349 342 323 276 280 282 256 270 287 277 225 256 273 291 278 263 249 272 282 270 264 290 310 325 332 331 328 327 326 326 327 329 328 327 328 331 333 332 330 327 328 327 322 312 297 259 233 223 199 178 166 149 144 153 149 131 112 105 101 86 59
162 156 163 174 182 186 204 224 231 239 249 255 260 268 272 273 278 277 256 215 187 171 161 146 102 35 344 348 1 281 276 280 264 263 259 203 195 300 321 287 259 257 256 285 288 285 297 313 323 328 329 326 325 324 324 324 324 325 325 326 330 333 331 326 324 325 326 323 315 305 280 225 207 202 183 163 145 126 127 142 145 127 105 107 112 98 74
166 163 178 216 244 216 216 221 231 252 264 269 275 284 287 280 273 265 240 187 160 153 153 132 101 85 317 335 6 314 280 289 296 281 290 301 298 300 293 268 280 288 284 264 288 308 316 322 327 327 324 322 323 325 324 324 325 324 322 323 327 328 324 320 321 323 324 319 310 294 251 180 156 154 152 147 143 137 125 120 122 120 112 114 118 111 98
179 186 201 216 222 216 218 213 212 273 291 289 291 301 305 291 264 238 200 160 145 135 109 86 88 107 148 346 24 349 277 287 284 286 296 290 254 227 227 257 279 293 299 301 308 314 319 323 325 324 322 322 325 327 327 327 326 324 322 322 321 319 317 318 321 324 324 318 301 266 217 131 112 124 129 130 134 136 123 106 111 126 128 125 122 118 116
190 212 219 216 214 210 198 191 214 269 294 290 295 309 315 298 218 185 174 167 156 127 89 83 96 75 53 55 198 262 308 315 311 282 270 266 260 271 288 289 294 309 314 314 315 318 321 323 324 323 322 323 326 329 328 326 325 325 323 320 317 315 317 319 322 325 326 320 295 230 182 137 126 129 127 127 133 135 125 114 114 119 122 119 113 109 110
192 209 224 223 222 224 232 245 260 276 281 279 289 306 315 293 181 168 172 179 168 145 137 144 131 92 76 197 212 337 327 311 297 286 280 283 299 310 281 290 305 315 317 318 320 321 321 323 324 325 324 324 327 329 327 324 323 323 320 317 316 319 320 321 322 326 329 329 323 160 149 143 141 138 137 142 149 144 129 119 113 112 113 110 102 97 96